A/2019 T1

Japanese version
Home page
Updated on May 1, 2022

---------------------------------------------------------------------

* Profile

Discovery Date October 8, 2019
Magnitude 20.7 mag
Discoverer Pan-STARRS 2 (Haleakala)

* Pictures

* Orbital Elements

Epoch 2022 Jan. 21.0 TT = JDT 2459600.5
T 2021 Jan. 14.49092 TT                                 Rudenko
q   4.2819246            (2000.0)            P               Q
z  +0.0260220      Peri.   91.05805     +0.04372712     -0.99363467
 +/-0.0000005      Node     6.94730     -0.81066479     -0.09602254
e   0.8885756      Incl.  120.87314     +0.58387545     -0.05890521
H   13.0
From 236 observations 2017 Sept. 16-2022 Feb. 15, mean residual 0".4.

* Magnitudes Graph

        H = 13.0  G = 0.15

---------------------------------------------------------------------

The orbital elements are published on M.P.E.C. 2022-D36.
The magnitudes graphs are made with Comet for Windows.

---------------------------------------------------------------------

Copyright(C) Seiichi Yoshida (comet@aerith.net). All rights reserved.